Location: Il Ritiro
(43.4167°N, 13.1333°E)
Time: 08:10:24
(UTC+00:00)

Cosmos 2333 Rocket - Pass Details

Date: 05 July 2020
Orbit: 837 x 864 km, 70.8° (Epoch: 05 August)

Event Time Altitude Azimuth Distance (km) Brightness Sun altitude
Exits shadow 20:39:21 - 199° (SSW) 3,065 4.8 -15.2°
Reaches altitude 10° 20:40:57 10° 199° (SSW) 2,459 4.3 -15.3°
Maximum altitude 20:46:36 81° 112° (ESE) 866 2.1 -15.9°
Drops below altitude 10° 20:52:20 10° 27° (NNE) 2,493 5.0 -16.5°
Sets 20:54:48 0° 27° (NNE) 3,438 5.8 -16.8°
